星链-32365 (STARLINK-32365)

导读 | 豆包AI

STARLINK-32365是美国SpaceX公司星链(Starlink)星座的成员卫星,于2024年10月23日08:00发射入轨。星链项目旨在构建全球低轨道卫星互联网,为全球偏远地区提供低延迟高速宽带服务。该卫星属于星链二代组网卫星,运行在近地轨道,配备相控阵天线与太阳能电池阵,设计寿命约5-7年,退役后会主动离轨再入大气层销毁。它的入轨进一步扩充了星链星座的覆盖范围与服务容量,推动星链全球互联网服务的部署进程,不过也引发了天文观测与太空交通安全的相关讨论。

Basic Information
目录编号:
61625
目录名称:
STARLINK-32365
国际标识:
2024-191E
轨道中心:
EARTH
卫星名称:
星链-32365
卫星全名:
星链-32365 (STARLINK-32365)
卫星状态:
在轨 (已飞行508 天)
发射日期:
2024-10-23 UTC
国别 :
美国 (US)
星等 :
--
Orbit Information
数据来源 国际轨道数据 AOE轨道数据
星历时间 2026-03-14T19:49:58+0800
1天前
查看轨道信息
2026-03-11T08:00:00+0800
4天前
查看轨道信息
半长轴 6861.187km 6861.184km
偏心率 0.0001397 0.0000012
轨道倾角 43.001° 42.992°
近地点辐角 269.788° 37.514°
升交点赤经 127.148° 146.873°
平近点角 90.282° 170.840°
近地点 482.091km 483.038km
远地点 484.009km 483.056km
周期 94.267分钟 94.267分钟
每日圈数 15.275798 15.275808
Detailed Information
固有亮度:
5
最大亮度:
2.5
卫星平台:
Starlink V1.0
覆盖范围:
全球
运营商:
太空探索技术公司
运营商所在国:
美国
制造商(研发单位):
太空探索技术公司
制造商所在国:
美国
使用方式:
暂无
Satellite Introduction
Starlink 计划是 SpaceX 推出的全球卫星互联网项目,通过发射低轨道卫星,为全球尤其是偏远地区提供高速、低延迟的互联网服务。自 2019 年起,Starlink 已部署数千颗卫星,旨在缩小全球数字鸿沟,推动互联网普及。该项目还为军事、航空等行业提供通信支持,带来广泛经济效益。
2D Orbit Map
3D Orbit Map
Orbit Altitude Analysis Chart
Orbit Inclination Analysis Chart
Orbit Comprehensive Analysis Chart
View Comprehensive Chart